Probability
0 0 6 0 3 3 0 0 0 0 0 0 0 0 0 0 0 0 0 3 3 6 3 3 6 3 6 3 10 13 13 16 16 16 13 13 13 19 16 10 10 6 6
3 3 3 3 0 0 0 0 0 0 3 3 3 0 0 0 0 0 0 0 0 6 10 6 6 6 3 10 10 10 10 10 13 3 3 6 10 13 10 10 6 6 6
3 3 3 0 0 0 0 0 3 0 0 0 3 3 0 0 0 0 0 0 0 0 6 6 6 6 10 3 10 10 13 10 3 3 6 3 3 6 10 10 10 6 6
0 3 0 0 0 3 3 3 3 0 0 0 0 0 3 3 0 0 0 0 0 0 0 6 3 6 6 3 10 10 10 6 6 6 6 6 3 6 10 19 16 13 13
0 0 0 0 0 3 3 3 0 0 0 0 0 0 0 3 3 0 0 0 0 0 0 0 3 3 0 0 6 6 10 6 6 6 6 6 3 3 6 13 19 16 19
0 0 0 0 3 3 3 0 0 0 0 0 0 0 0 0 3 0 0 0 0 0 0 0 0 0 0 3 0 0 0 0 0 6 3 3 3 3 10 13 19 19 19
0 6 0 0 3 3 3 0 0 0 0 0 0 0 0 0 0 0 0 0 0 0 0 0 0 0 0 3 3 0 0 0 0 0 0 3 3 3 10 13 19 16 16
3 3 0 0 0 3 0 0 0 0 0 0 0 0 0 0 0 3 0 0 0 0 0 0 0 0 0 0 0 0 3 3 0 0 6 6 3 10 3 13 16 13 13
3 3 0 3 0 0 0 0 3 0 0 0 0 0 0 0 0 3 0 0 0 0 0 0 0 0 0 0 0 0 3 3 3 3 6 3 0 3 6 10 16 10 13
3 3 0 3 0 0 0 0 0 0 0 0 0 0 0 0 0 0 0 0 0 0 0 0 0 0 0 0 0 0 3 3 3 3 6 6 6 6 6 6 6 10 13
3 3 3 3 3 0 0 0 0 0 0 0 0 0 0 0 0 0 0 0 0 0 0 0 0 0 0 0 0 0 3 3 3 3 3 3 3 3 6 10 10 13 13
10 3 3 6 3 3 0 0 0 0 0 0 0 0 0 0 0 0 0 0 0 0 0 0 0 0 0 0 0 0 0 3 3 3 3 3 3 0 0 6 10 13 13
6 10 3 6 3 3 3 0 0 0 0 0 0 0 0 0 0 0 0 0 0 0 0 0 0 0 0 0 0 0 0 0 0 3 0 0 0 0 0 0 3 10 13
3 3 6 6 3 3 0 3 0 0 0 0 0 0 0 0 0 0 0 0 0 0 0 0 0 0 0 0 0 0 0 0 0 0 0 0 0 0 0 3 0 3 3
3 3 3 3 3 3 0 0 3 0 0 0 0 0 0 0 0 0 0 0 0 0 0 0 0 0 0 0 0 0 0 0 0 0 0 0 0 0 0 0 0 0 0
3 3 3 3 3 3 3 3 3 3 0 0 0 0 0 0 0 0 0 0 0 0 0 0 0 0 0 0 0 0 0 0 0 0 0 0 0 0 0 0 0 0 0
3 3 3 3 3 3 3 0 3 3 3 3 0 0 0 0 0 0 0 0 0 0 0 0 0 0 0 0 0 0 0 0 0 0 0 0 0 0 0 0 0 0 0
0 0 0 0 3 3 3 0 3 0 3 3 0 0 0 0 0 0 0 0 0 0 0 0 0 0 0 0 0 0 0 0 0 0 0 0 0 0 0 0 0 0 0
0 0 0 0 0 0 3 3 0 0 0 0 0 0 0 0 0 0 0 0 0 0 0 0 0 0 0 0 0 0 0 0 0 0 0 0 0 0 0 0 0 0 0
0 0 0 0 0 0 0 0 0 0 0 0 0 0 0 0 3 0 0 0 0 0 0 0 0 0 0 0 0 0 0 0 0 0 0 0 0 0 0 0 0 0 0
0 0 0 0 0 0 0 0 0 0 0 0 0 0 0 0 0 0 0 0 0 0 0 0 0 0 0 0 0 0 0 0 0 0 0 0 0 0 0 0 0 0 0
0 0 0 0 0 0 0 0 0 0 0 0 0 0 0 0 0 0 0 0 0 0 0 0 0 0 0 0 0 0 0 0 0 0 0 0 0 0 0 0 0 0 0
3 0 0 0 0 0 0 0 0 0 0 0 0 0 0 0 0 0 0 0 0 0 0 0 0 0 0 0 0 0 0 0 0 0 0 0 0 0 0 0 0 0 0
3 0 0 3 0 0 0 0 0 0 0 0 0 0 0 0 0 0 0 0 0 0 0 0 0 0 0 0 0 0 0 0 0 0 0 0 0 0 0 0 0 0 0
3 3 3 3 0 3 0 0 0 0 0 0 0 0 0 0 0 0 0 0 0 0 0 0 0 0 0 0 0 0 0 0 0 0 0 0 0 0 0 0 0 0 0
6 3 0 0 0 0 0 0 0 0 0 0 0 0 0 0 0 0 0 0 0 0 0 0 0 0 0 0 0 0 0 0 0 0 0 0 0 0 0 0 0 0 0
Height
5844 5843 5843 5843 5842 5841 5840 5840 5840 5840 5840 5840 5839 5839 5840 5840 5840 5841 5841 5842 5843 5843 5844 5844 5844 5845 5845 5845 5845 5845 5845 5845 5845 5845 5845 5845 5844 5843 5843 5844 5845 5847 5847
5842 5842 5841 5841 5840 5840 5839 5838 5838 5837 5837 5837 5837 5837 5837 5837 5837 5838 5838 5839 5840 5840 5841 5841 5841 5842 5842 5842 5842 5842 5841 5841 5841 5841 5841 5841 5840 5840 5841 5841 5842 5842 5843
5841 5840 5840 5839 5838 5837 5836 5836 5835 5834 5834 5834 5834 5834 5834 5834 5834 5835 5835 5836 5836 5837 5838 5838 5839 5839 5839 5839 5839 5839 5838 5838 5838 5837 5837 5837 5837 5836 5837 5837 5838 5838 5838
5839 5838 5838 5837 5836 5835 5834 5833 5832 5831 5831 5831 5831 5831 5831 5831 5831 5832 5832 5832 5833 5834 5835 5835 5836 5836 5836 5835 5836 5835 5835 5835 5834 5834 5834 5833 5833 5833 5833 5833 5834 5834 5834
5837 5837 5836 5835 5834 5833 5831 5830 5829 5828 5828 5828 5829 5829 5829 5829 5829 5829 5829 5830 5830 5831 5832 5832 5833 5833 5833 5833 5832 5832 5832 5831 5831 5830 5830 5829 5829 5829 5829 5829 5829 5829 5829
5836 5835 5834 5833 5832 5831 5829 5828 5826 5825 5825 5825 5825 5826 5826 5826 5826 5827 5827 5827 5828 5829 5829 5830 5830 5830 5830 5830 5829 5829 5828 5828 5827 5827 5826 5826 5825 5825 5825 5825 5825 5825 5824
5834 5833 5832 5832 5831 5829 5828 5826 5825 5824 5823 5823 5823 5823 5823 5824 5824 5824 5825 5825 5826 5826 5827 5827 5827 5827 5827 5827 5826 5826 5825 5825 5824 5823 5822 5822 5821 5821 5820 5820 5820 5820 5820
5833 5832 5831 5830 5829 5827 5826 5825 5824 5823 5822 5821 5821 5821 5821 5822 5822 5822 5823 5823 5823 5823 5824 5824 5825 5824 5824 5824 5823 5823 5822 5822 5821 5820 5819 5818 5817 5817 5816 5816 5816 5815 5815
5831 5830 5829 5828 5827 5826 5824 5823 5822 5821 5821 5820 5819 5819 5819 5819 5820 5820 5820 5821 5821 5821 5821 5821 5821 5821 5821 5821 5820 5820 5819 5818 5817 5816 5815 5814 5814 5813 5813 5812 5811 5811 5810
5829 5828 5827 5825 5824 5823 5822 5821 5820 5819 5819 5818 5817 5817 5818 5818 5818 5818 5818 5818 5818 5819 5819 5818 5818 5818 5818 5818 5817 5817 5816 5815 5814 5813 5812 5811 5810 5809 5809 5808 5807 5806 5806
5827 5826 5825 5824 5823 5821 5820 5819 5819 5818 5817 5817 5816 5816 5815 5815 5815 5816 5816 5816 5816 5816 5816 5816 5815 5815 5815 5815 5814 5814 5813 5812 5811 5810 5809 5808 5807 5806 5805 5804 5803 5802 5801
5824 5823 5822 5821 5820 5819 5818 5817 5817 5816 5816 5815 5814 5814 5813 5813 5813 5813 5813 5813 5813 5813 5813 5813 5813 5812 5812 5811 5811 5810 5810 5809 5808 5807 5806 5804 5803 5802 5801 5800 5799 5798 5797
5821 5821 5820 5819 5818 5817 5816 5815 5815 5814 5814 5813 5812 5812 5812 5811 5811 5810 5811 5810 5810 5810 5810 5810 5809 5809 5809 5808 5808 5807 5807 5806 5805 5804 5802 5801 5800 5798 5797 5796 5795 5794 5792
5818 5818 5817 5816 5815 5814 5813 5813 5812 5812 5811 5811 5810 5810 5809 5809 5808 5808 5808 5808 5807 5807 5807 5807 5806 5806 5805 5805 5805 5804 5803 5802 5802 5800 5799 5798 5796 5795 5794 5792 5791 5789 5788
5815 5814 5813 5813 5812 5811 5810 5810 5809 5809 5808 5808 5808 5807 5807 5806 5806 5805 5805 5805 5805 5804 5804 5803 5803 5803 5802 5802 5801 5801 5800 5799 5798 5797 5796 5795 5793 5792 5790 5788 5787 5786 5785
5811 5810 5809 5809 5808 5807 5807 5806 5805 5805 5805 5805 5805 5804 5804 5803 5803 5802 5802 5801 5801 5801 5801 5800 5800 5800 5799 5799 5798 5797 5797 5795 5794 5793 5792 5791 5789 5788 5786 5785 5783 5782 5781
5807 5806 5805 5804 5804 5803 5803 5802 5801 5801 5801 5801 5801 5801 5800 5800 5800 5799 5799 5798 5798 5797 5797 5797 5796 5796 5796 5795 5794 5794 5793 5792 5791 5789 5788 5787 5785 5784 5782 5781 5779 5778 5777
5802 5801 5800 5800 5799 5798 5798 5798 5797 5797 5796 5796 5796 5796 5796 5796 5796 5796 5795 5795 5794 5794 5793 5793 5793 5792 5792 5791 5790 5790 5789 5788 5786 5785 5784 5783 5781 5780 5778 5777 5775 5774 5773
5797 5796 5795 5795 5794 5793 5793 5792 5792 5792 5791 5791 5792 5792 5792 5792 5792 5792 5791 5791 5790 5789 5789 5789 5789 5788 5787 5787 5786 5785 5784 5783 5782 5781 5780 5778 5777 5776 5774 5772 5771 5769 5768
5791 5790 5789 5789 5788 5788 5787 5786 5786 5786 5786 5786 5786 5787 5787 5787 5787 5787 5786 5786 5785 5785 5785 5784 5784 5783 5783 5782 5781 5780 5779 5778 5777 5776 5775 5773 5772 5771 5769 5768 5766 5764 5763
5785 5784 5784 5783 5782 5782 5781 5780 5780 5780 5780 5780 5780 5781 5781 5781 5781 5781 5781 5780 5780 5780 5779 5779 5779 5778 5778 5777 5776 5775 5774 5773 5772 5771 5770 5768 5767 5766 5764 5763 5761 5759 5757
5779 5778 5777 5777 5776 5775 5774 5774 5774 5774 5774 5774 5775 5775 5775 5775 5775 5775 5775 5775 5775 5774 5774 5774 5773 5773 5772 5771 5770 5770 5769 5768 5767 5766 5764 5763 5761 5760 5759 5757 5755 5753 5752
5772 5772 5771 5770 5769 5768 5768 5767 5767 5767 5767 5767 5768 5768 5768 5769 5769 5769 5769 5768 5768 5768 5768 5768 5767 5766 5766 5765 5764 5763 5762 5761 5760 5759 5758 5757 5755 5754 5752 5751 5749 5747 5746
5765 5765 5764 5763 5763 5762 5761 5760 5760 5760 5760 5760 5761 5761 5762 5762 5762 5762 5762 5762 5762 5761 5761 5761 5760 5760 5759 5758 5758 5757 5756 5755 5753 5752 5751 5750 5749 5748 5746 5745 5743 5741 5739
5758 5758 5757 5756 5756 5755 5754 5753 5753 5753 5753 5753 5754 5754 5754 5754 5754 5754 5754 5754 5754 5754 5754 5753 5753 5752 5752 5751 5750 5750 5749 5748 5747 5745 5744 5743 5742 5741 5740 5738 5736 5735 5733
5751 5750 5749 5748 5748 5747 5747 5746 5745 5745 5746 5746 5746 5746 5746 5746 5746 5746 5746 5747 5747 5747 5746 5746 5745 5745 5744 5744 5743 5742 5742 5741 5740 5739 5737 5736 5735 5734 5734 5732 5730 5728 5726
Wind_Speed
10 10 10 10 10 11 12 12 11 10 11 11 11 11 11 11 11 11 12 12 12 12 12 11 12 12 12 12 13 13 14 15 16 17 17 18 18 17 18 19 19 19 19
10 10 10 10 11 11 12 11 11 11 11 10 10 11 11 11 11 11 12 12 12 12 12 12 12 12 12 13 13 13 14 15 15 15 16 17 17 17 18 18 18 19 20
10 10 10 10 11 11 11 11 12 11 11 11 11 11 11 11 12 12 12 13 12 12 12 13 12 12 12 12 12 13 14 14 15 15 15 16 16 17 17 17 18 19 19
10 10 10 10 10 11 11 12 12 11 11 11 11 11 11 12 12 12 12 12 12 12 12 12 12 12 12 12 12 13 14 14 15 15 15 15 15 16 16 17 17 18 18
10 10 11 10 10 11 12 12 12 12 12 12 11 11 11 12 12 12 12 11 11 11 11 11 11 12 12 13 13 13 13 14 14 15 15 15 16 16 17 17 18 18 18
10 11 11 10 10 11 11 12 11 10 10 10 11 11 11 11 11 10 10 10 10 10 10 9 10 10 11 13 13 13 13 14 14 14 13 14 15 16 16 16 17 17 18
10 11 11 10 10 10 10 10 10 9 9 10 10 10 10 10 10 10 9 9 9 10 10 9 9 11 11 12 12 12 12 13 13 14 13 13 14 15 15 16 16 17 18
11 11 11 11 11 10 10 9 9 9 9 10 10 9 9 9 9 9 9 9 9 9 10 10 10 11 11 11 11 11 12 12 13 13 13 13 13 14 15 15 16 17 17
12 12 12 12 11 11 10 10 9 9 9 9 9 9 9 9 10 9 9 9 9 10 10 10 10 10 11 11 12 11 11 11 12 13 13 12 13 14 14 15 16 16 17
13 13 12 12 12 11 11 10 9 9 9 8 8 8 9 9 9 9 9 9 10 10 10 10 10 10 11 12 12 12 12 12 13 13 13 13 13 14 15 16 17 17 17
13 13 12 12 12 12 11 9 9 8 8 8 8 8 8 9 9 9 9 9 10 10 10 10 11 11 11 11 12 13 12 13 13 13 13 13 14 14 15 16 16 16 16
13 13 13 12 12 11 10 10 9 9 9 9 8 8 9 9 10 10 10 10 11 11 11 11 11 11 11 11 11 12 12 13 13 13 13 14 14 15 16 16 15 16 16
13 13 13 13 12 11 10 11 10 10 10 10 10 10 10 10 10 10 11 11 12 12 12 12 12 12 11 12 12 12 13 13 13 13 14 14 15 15 15 14 14 14 14
14 14 13 13 12 12 12 11 12 11 11 11 11 11 11 11 10 11 11 12 12 12 12 12 13 13 12 12 12 12 13 13 13 13 14 14 15 15 14 14 13 13 13
15 15 14 14 14 13 13 13 13 12 12 12 12 12 11 11 11 11 12 12 12 11 12 12 12 12 12 12 12 12 13 13 14 14 14 14 15 15 14 13 13 13 13
17 17 15 15 15 14 14 14 14 14 14 13 13 13 12 12 12 12 12 12 12 12 13 13 12 12 12 12 12 13 13 14 14 14 15 15 15 15 14 14 13 12 13
18 18 17 16 16 15 15 15 15 16 15 15 14 14 13 13 13 13 13 13 13 13 13 13 13 13 13 13 13 14 14 14 15 15 15 15 15 15 14 14 14 14 14
19 19 18 18 17 17 17 17 17 17 17 16 16 15 14 14 14 14 14 14 14 14 13 13 14 14 14 14 15 15 15 15 15 15 16 15 15 15 15 16 16 15 15
21 20 20 20 19 19 19 19 19 19 18 18 17 17 16 16 16 15 15 15 15 15 15 14 14 15 15 16 16 16 16 16 16 16 16 16 16 16 16 16 17 16 16
21 21 21 21 20 20 20 20 20 20 19 19 18 18 17 17 17 17 17 17 17 17 16 16 16 16 16 17 17 17 18 17 17 17 17 17 17 17 17 17 18 17 17
22 21 22 21 21 21 21 21 20 20 20 19 19 19 19 19 18 18 18 18 18 18 18 18 18 18 18 19 18 18 18 17 18 18 19 19 18 18 18 18 18 18 17
23 22 22 22 22 22 21 21 21 21 20 20 20 20 20 21 20 20 20 20 19 19 19 19 19 19 19 20 19 19 19 19 19 19 20 20 20 19 19 19 19 19 19
24 23 23 23 23 23 22 22 22 22 22 22 22 22 22 22 22 22 22 21 21 21 21 21 21 20 20 21 20 20 20 20 21 21 20 20 20 20 20 20 20 20 20
24 24 24 24 23 23 23 23 24 24 24 23 23 23 23 23 24 24 22 22 22 22 23 22 22 22 22 22 21 21 21 21 21 21 20 20 20 20 21 21 21 20 20
25 24 24 24 24 24 24 24 25 25 25 25 24 24 25 25 25 25 24 23 23 23 24 24 23 23 23 22 22 22 22 22 22 21 21 22 22 22 22 22 22 22 21
25 25 25 25 25 24 24 25 26 26 26 26 25 25 26 26 26 26 26 25 24 24 25 25 24 24 24 23 23 23 23 23 23 23 22 23 22 22 22 22 23 22 21
Wind_Direction
308 307 302 303 302 301 299 296 293 290 289 284 277 273 273 273 268 267 266 265 266 268 269 268 268 270 270 268 272 273 275 274 274 274 276 274 270 269 263 263 265 266 267
310 307 304 303 304 303 301 297 295 291 289 287 283 281 278 275 271 271 271 269 268 267 268 270 270 274 275 274 275 277 276 275 278 278 278 275 274 270 268 266 266 269 268
310 309 305 304 304 303 302 301 297 292 289 286 285 284 282 278 273 273 273 271 270 271 273 273 274 278 275 277 280 280 278 279 284 283 281 278 275 271 269 269 269 270 271
309 312 311 305 301 301 303 302 299 293 287 284 285 284 280 280 278 275 273 271 268 270 272 273 276 277 277 279 284 284 282 283 286 286 283 279 274 272 270 270 270 271 272
314 316 316 313 307 305 304 303 299 295 289 282 282 284 281 280 278 275 272 271 269 269 271 274 277 277 280 285 289 287 284 285 287 285 284 282 277 275 274 274 273 273 273
318 317 315 314 314 311 310 308 304 299 291 286 282 282 283 280 277 276 277 277 272 270 270 274 277 275 283 286 287 290 288 288 288 287 285 282 279 276 274 275 274 274 275
318 318 316 314 314 313 312 309 306 302 293 287 283 281 282 278 275 276 278 273 275 272 269 273 275 280 287 287 290 294 291 291 288 287 284 282 282 279 277 277 276 276 277
319 318 317 316 314 313 313 309 304 301 295 292 288 284 282 281 278 275 272 274 277 275 276 275 277 280 286 289 290 291 290 289 290 290 287 284 284 282 282 280 279 279 280
318 316 319 316 314 309 307 306 303 302 301 299 292 290 288 281 278 280 278 278 279 277 278 282 281 282 286 290 289 287 288 291 293 294 291 288 286 285 285 283 285 282 282
315 316 317 316 314 311 306 303 302 301 301 303 299 295 291 286 285 282 284 283 283 284 282 282 284 285 287 289 288 290 292 295 300 302 297 294 292 292 290 289 289 290 289
312 315 316 314 313 311 309 306 303 303 303 303 300 294 292 289 286 284 281 281 286 288 285 287 288 289 286 286 287 289 292 299 304 303 303 303 301 297 292 292 291 291 292
309 311 313 309 309 307 306 304 302 299 299 300 299 294 292 290 286 285 283 285 289 292 290 289 292 293 289 290 292 293 296 299 301 301 303 306 304 300 297 296 294 292 293
305 307 309 306 302 301 300 300 299 295 294 295 295 294 292 291 289 287 288 289 291 293 295 293 291 296 295 296 296 296 300 301 301 303 305 308 307 304 300 299 296 294 291
303 303 302 301 297 296 293 293 294 291 289 290 290 290 291 291 292 290 290 292 293 292 294 295 294 295 296 299 299 299 300 303 303 304 306 308 309 306 304 299 295 295 293
297 297 298 294 294 294 291 290 291 289 288 288 288 288 289 291 292 294 294 292 292 292 292 292 296 296 295 298 300 301 301 301 304 304 304 305 306 307 305 302 296 292 292
292 292 295 293 291 291 291 289 287 286 286 286 286 288 289 289 290 292 292 292 291 291 292 290 290 292 294 296 299 301 301 301 304 305 304 303 305 305 303 302 301 296 296
291 291 291 290 289 288 286 287 286 285 284 285 285 286 287 288 288 288 289 291 293 292 292 290 289 289 291 293 296 299 300 299 301 302 303 305 304 304 305 304 302 299 298
290 290 287 286 287 286 283 281 280 282 281 280 282 283 284 286 288 287 287 288 291 292 291 290 291 290 290 292 294 297 300 299 300 300 302 304 303 301 301 302 301 298 296
289 289 285 285 284 284 282 280 279 279 278 278 278 278 279 282 285 286 286 287 288 289 289 289 290 291 292 292 293 296 298 300 300 299 301 301 300 298 299 300 299 295 295
289 288 286 285 284 281 280 279 278 278 277 276 276 275 276 278 282 284 285 285 285 285 285 287 287 288 289 291 293 294 294 296 296 297 298 298 297 297 298 299 298 295 293
288 288 287 286 284 283 281 279 278 276 276 276 275 274 273 274 278 281 284 285 285 283 283 284 286 288 288 289 291 293 293 293 293 294 295 295 294 294 296 297 298 297 293
287 287 287 286 286 284 280 278 277 276 276 275 274 273 273 273 276 277 279 281 282 283 284 284 284 287 288 288 288 290 291 292 293 291 291 292 291 291 293 295 297 296 294
285 285 284 285 284 282 278 277 276 275 275 274 273 273 273 273 274 275 277 278 280 281 283 284 285 285 286 286 287 289 290 291 293 291 290 289 289 290 293 295 295 296 296
284 284 283 283 283 281 278 276 276 275 274 273 272 272 272 272 272 272 273 275 276 278 280 282 283 284 284 285 285 287 288 289 290 290 290 289 288 289 291 292 293 295 295
282 283 282 281 281 280 278 277 277 275 273 272 271 271 272 272 271 270 271 273 274 277 279 281 281 282 283 283 284 285 286 287 289 289 290 289 287 287 289 290 291 292 292
283 283 283 282 280 279 279 278 278 277 275 273 271 271 272 272 271 271 271 272 274 276 278 279 280 281 283 283 283 284 285 286 287 288 287 286 286 286 287 288 290 290 290